Location: Unspecified
(35.6961°N, 0.0000°E)
Time: 17:43:38
(UTC+00:00)

Altair - Pass Details

Date: 23 May 2019
Orbit: 1501 x 1683 km, 47.2° (Epoch: 19 June)

Event Time Altitude Azimuth Distance (km) Brightness Sun altitude
Rises 03:13:02 0° 227° (SW) 4,871 - -17.1°
Reaches altitude 10° 03:16:09 10° 226° (SW) 3,902 - -16.6°
Exits shadow 03:18:43 21° 224° (SW) 3,129 8.5 -16.2°
Maximum altitude 03:26:12 79° 141° (SE) 1,710 7.7 -15.1°
Drops below altitude 10° 03:36:22 10° 57° (ENE) 3,940 11.1 -13.5°
Sets 03:39:32 0° 57° (ENE) 4,919 12.2 -13.0°
